[[{"header":{"parameterUnit":"m.s-1","parameterCategory":2,"la1":30.2992,"la2":30.254,"lo1":-89.0895,"lo2":-89.0443,"dy":0.0025,"dx":0.0025,"nx":19,"ny":19,"refTime":"2026-05-06T03:00:00:Z","depth":"0","parameterNumber":2,"parameterNumberName":"U-component_of_CURRENTS"},"data":[0,0,0,0.2862,0.2864,0.2941,0.2941,0.3103,0.3105,0,0,0,0,0,0,0,0,0,0,0,0.2825,0.2826,0.2862,0.2864,0.2941,0.2941,0.3103,0.3105,0,0,0,0,0,0,0,0,0,0,0,0.2825,0.2825,0.2826,0.2865,0.294,0.2941,0.3102,0.3027,0,0,0,0,0,0,0,0,0,0,0.2944,0.2901,0.2825,0.2826,0.2865,0.294,0.2941,0.3022,0.3032,0.309,0,0.31,0,0.3119,0.3118,0.3119,0,0,0,0.2856,0.2893,0.2921,0.2826,0.2866,0.294,0.2904,0.3027,0.3037,0.3103,0.3103,0.3109,0.3121,0.3119,0.312,0.3272,0.3273,0,0,0.2852,0.2837,0.2913,0.2927,0.2887,0.2901,0.2906,0.3032,0.3042,0.3103,0.3113,0.3124,0.3121,0.3122,0.3272,0.3273,0,0,0,0.2845,0.2834,0.2856,0.292,0.2936,0.2904,0.2909,0.3036,0.3045,0.3114,0.3126,0.3122,0.3124,0.3272,0.3272,0.3277,0,0,0,0.2842,0.2831,0.2854,0.2846,0.2933,0.2979,0.291,0.3035,0.3051,0.3125,0.3122,0.3126,0.3272,0.3272,0.3277,0.3255,0,0,0,0.2821,0.2829,0.2838,0.2845,0.2884,0.2977,0.2992,0.3038,0.3059,0.3119,0.3127,0.3272,0.3272,0.3276,0.3255,0.3325,0,0,0,0.2802,0.2812,0.2838,0.286,0.2883,0.2951,0.2991,0.3053,0.3103,0.3123,0.3272,0.3272,0.3276,0.3255,0.3323,0.3291,0.3294,0,0,0.2802,0.2812,0.2826,0.2851,0.2907,0.294,0.3015,0.3096,0.3129,0.3234,0.3237,0.3277,0.3255,0.3324,0.3318,0.332,0,0,0,0.2818,0.2823,0.2846,0.2886,0.2945,0.3003,0.3082,0.3122,0.3202,0.3163,0.3285,0.327,0.3315,0.3293,0.3295,0.3297,0.3274,0.3274,0.3274,0.2778,0.2819,0.2843,0.2903,0.2958,0.3064,0.3113,0.3183,0.3231,0.3259,0.3282,0.3341,0.3317,0.3318,0.332,0.3303,0.3303,0.3303,0.3303,0.2764,0.2766,0.2833,0.2866,0.2952,0.3027,0.316,0.3206,0.3306,0.3298,0.3343,0.3306,0.332,0.3322,0.3303,0.3303,0.3303,0.3303,0.3303,0.2717,0.2721,0.2747,0.2803,0.2883,0.3004,0.3104,0.3209,0.3295,0.333,0.3363,0.3363,0.3362,0.3384,0.3385,0.3385,0.3385,0.3385,0.3385,0.2645,0.2674,0.2674,0.2744,0.278,0.2891,0.3083,0.3174,0.331,0.3354,0.3355,0.3374,0.3366,0.336,0.3389,0.3388,0.3388,0.3387,0.3387,0.2579,0.2584,0.2584,0.2603,0.2695,0.2746,0.2963,0.3154,0.3284,0.3331,0.3391,0.339,0.3392,0.339,0.3385,0.3418,0.3418,0.3418,0.3418,0.2514,0.2525,0.2493,0.25,0.2558,0.2673,0.2768,0.2986,0.3242,0.3337,0.3407,0.3368,0.3366,0.3366,0.3364,0.3358,0.3384,0.3384,0.3384,0.2466,0.2467,0.2415,0.2424,0.2477,0.2567,0.2606,0.2752,0.3142,0.3385,0.342,0.3421,0.3366,0.3364,0.3361,0.3359,0.3348,0,0]},{"header":{"parameterUnit":"m.s-1","parameterCategory":2,"la1":30.2992,"la2":30.254,"lo1":-89.0895,"lo2":-89.0443,"dy":0.0025,"dx":0.0025,"nx":19,"ny":19,"refTime":"2026-05-06T03:00:00:Z","depth":"0","parameterNumber":3,"parameterNumberName":"V-component_of_CURRENTS"},"data":[0,0,0,0.0445,0.0445,0.0434,0.0434,0.0407,0.0407,0,0,0,0,0,0,0,0,0,0,0,0.0439,0.0439,0.0445,0.0445,0.0434,0.0434,0.0407,0.0407,0,0,0,0,0,0,0,0,0,0,0,0.0439,0.0439,0.0439,0.0445,0.0434,0.0434,0.0407,0.0415,0,0,0,0,0,0,0,0,0,0,0.0425,0.0427,0.0439,0.0439,0.0445,0.0434,0.0434,0.0415,0.0414,0.0412,0,0.0414,0,0.0421,0.0406,0.0406,0,0,0,0.043,0.0427,0.043,0.0439,0.0445,0.0435,0.0435,0.0415,0.0414,0.0411,0.0414,0.0413,0.042,0.0406,0.0406,0.0459,0.046,0,0,0.0431,0.043,0.0431,0.0429,0.0447,0.0435,0.0435,0.0414,0.0412,0.0414,0.0413,0.042,0.0406,0.0406,0.0459,0.046,0,0,0,0.0442,0.0431,0.0433,0.043,0.0435,0.0435,0.0435,0.0412,0.0415,0.0413,0.042,0.0406,0.0406,0.0458,0.0459,0.0554,0,0,0,0.0442,0.0439,0.0434,0.0433,0.0436,0.0426,0.0433,0.0416,0.0414,0.042,0.0406,0.0405,0.0457,0.0459,0.055,0.0609,0,0,0,0.0439,0.0439,0.044,0.0433,0.0437,0.0427,0.0427,0.0415,0.0419,0.0406,0.0405,0.0457,0.0458,0.0546,0.0602,0.0653,0,0,0,0.0435,0.0465,0.044,0.048,0.0437,0.0487,0.0427,0.0452,0.045,0.0406,0.0457,0.0459,0.0545,0.0597,0.0649,0.0749,0.0777,0,0,0.0478,0.0469,0.0498,0.0477,0.0542,0.0487,0.0553,0.0518,0.0471,0.0459,0.046,0.0551,0.0601,0.0652,0.0841,0.0866,0,0,0,0.0517,0.0537,0.0551,0.0581,0.0597,0.0623,0.0589,0.0572,0.0558,0.0479,0.0557,0.0586,0.0615,0.0666,0.0687,0.0648,0.0466,0.0466,0.0466,0.0567,0.0591,0.0653,0.0684,0.0712,0.0722,0.0732,0.0702,0.0639,0.0648,0.0667,0.078,0.0836,0.0852,0.0812,0.0662,0.0662,0.0663,0.0663,0.0659,0.0704,0.0738,0.0806,0.0832,0.0883,0.0878,0.084,0.0839,0.0763,0.0786,0.0769,0.088,0.0829,0.0669,0.0668,0.0667,0.0667,0.0666,0.0699,0.0729,0.0771,0.0879,0.0968,0.0995,0.1101,0.1042,0.0948,0.0966,0.0998,0.0997,0.0947,0.097,0.097,0.0971,0.0971,0.0972,0.0972,0.072,0.0771,0.0857,0.0963,0.1051,0.117,0.1229,0.1246,0.1206,0.1128,0.1128,0.0999,0.0873,0.0856,0.098,0.0978,0.0977,0.0977,0.0976,0.0776,0.0796,0.0932,0.1025,0.1248,0.1459,0.1486,0.1557,0.1505,0.1496,0.1264,0.1204,0.1183,0.1166,0.1156,0.1351,0.1351,0.1351,0.1351,0.0803,0.0826,0.1014,0.1189,0.141,0.1598,0.1877,0.1908,0.1674,0.1542,0.1395,0.1339,0.1326,0.1307,0.1287,0.1276,0.1496,0.1496,0.1496,0.0849,0.0903,0.1044,0.1226,0.1495,0.1782,0.2104,0.2264,0.1853,0.1491,0.1326,0.132,0.1218,0.12,0.1148,0.1123,0.1095,0,0]}],[{"header":{"parameterUnit":"m.s-1","parameterCategory":2,"la1":30.2992,"la2":30.254,"lo1":-89.0895,"lo2":-89.0443,"dy":0.0025,"dx":0.0025,"nx":19,"ny":19,"refTime":"2026-05-06T03:00:00:Z","depth":"2","parameterNumber":2,"parameterNumberName":"U-component_of_CURRENTS"},"data":[0,0,0,0.2683,0.2685,0.2773,0.2773,0.2929,0.2931,0,0,0,0,0,0,0,0,0,0,0,0.2645,0.2645,0.2683,0.2685,0.2773,0.2773,0.2929,0.2931,0,0,0,0,0,0,0,0,0,0,0,0.2645,0.2645,0.2646,0.2686,0.2773,0.2773,0.2929,0.285,0,0,0,0,0,0,0,0,0,0,0.2759,0.2719,0.2645,0.2646,0.2686,0.2773,0.2773,0.2846,0.2855,0.2905,0,0.2919,0,0.2938,0.2943,0.2944,0,0,0,0.2678,0.2711,0.2739,0.2646,0.2687,0.2772,0.2731,0.285,0.2861,0.2917,0.2921,0.2927,0.2941,0.2944,0.2945,0.3088,0.3088,0,0,0.2673,0.266,0.2731,0.2746,0.2713,0.2729,0.2734,0.2856,0.2868,0.2922,0.2931,0.2943,0.2946,0.2947,0.3088,0.3088,0,0,0,0.2664,0.2657,0.268,0.2739,0.2757,0.2731,0.2738,0.2862,0.2871,0.2933,0.2945,0.2947,0.2949,0.3088,0.3088,0.3102,0,0,0,0.2661,0.2652,0.2678,0.267,0.2754,0.2806,0.2741,0.2862,0.2876,0.2944,0.2947,0.2951,0.3088,0.3088,0.3101,0.3082,0,0,0,0.264,0.265,0.2661,0.267,0.2712,0.2804,0.2819,0.2865,0.2885,0.2944,0.2951,0.3087,0.3088,0.3101,0.3081,0.3147,0,0,0,0.2622,0.2634,0.2661,0.2685,0.2711,0.2778,0.2818,0.2882,0.2931,0.2948,0.3088,0.3088,0.31,0.3081,0.3146,0.3096,0.3098,0,0,0.2623,0.2634,0.2648,0.2674,0.2728,0.2765,0.2839,0.2922,0.2954,0.3049,0.3052,0.3102,0.3081,0.3147,0.3125,0.3126,0,0,0,0.2639,0.2647,0.2668,0.2709,0.2765,0.2825,0.2905,0.2946,0.3028,0.2988,0.3108,0.3094,0.3135,0.3103,0.3104,0.309,0.309,0.309,0.309,0.2609,0.2645,0.2669,0.2724,0.2778,0.2884,0.2935,0.3006,0.3053,0.3087,0.3111,0.3172,0.3136,0.3137,0.3132,0.3132,0.3132,0.3132,0.3132,0.2596,0.2599,0.2662,0.2696,0.2779,0.2856,0.2983,0.3033,0.3135,0.313,0.3172,0.3124,0.3139,0.3133,0.3133,0.3133,0.3132,0.3132,0.3132,0.2556,0.2559,0.2587,0.2643,0.2725,0.2842,0.2941,0.3046,0.3132,0.317,0.3187,0.3186,0.3188,0.3224,0.3224,0.3225,0.3225,0.3225,0.3225,0.2491,0.2519,0.2523,0.2593,0.2631,0.2742,0.2929,0.3016,0.3143,0.3183,0.3184,0.3204,0.3201,0.3195,0.3228,0.3228,0.3227,0.3227,0.3227,0.243,0.2438,0.2441,0.2462,0.2552,0.2593,0.2806,0.2982,0.3109,0.3148,0.3209,0.3208,0.3204,0.3202,0.3196,0.3229,0.3229,0.3229,0.3229,0.237,0.2381,0.2355,0.2363,0.2414,0.2518,0.2576,0.2716,0.2932,0.2986,0.2996,0.2936,0.2943,0.292,0.2925,0.2911,0.287,0.2869,0.2868,0.2324,0.2327,0.228,0.2289,0.2332,0.2402,0.238,0.2342,0.2529,0.2847,0.2863,0.3218,0.3156,0.3156,0.3142,0.3141,0.3128,0,0]},{"header":{"parameterUnit":"m.s-1","parameterCategory":2,"la1":30.2992,"la2":30.254,"lo1":-89.0895,"lo2":-89.0443,"dy":0.0025,"dx":0.0025,"nx":19,"ny":19,"refTime":"2026-05-06T03:00:00:Z","depth":"2","parameterNumber":3,"parameterNumberName":"V-component_of_CURRENTS"},"data":[0,0,0,0.036,0.036,0.0354,0.0354,0.0324,0.0324,0,0,0,0,0,0,0,0,0,0,0,0.0354,0.0354,0.036,0.036,0.0354,0.0354,0.0324,0.0324,0,0,0,0,0,0,0,0,0,0,0,0.0354,0.0354,0.0354,0.036,0.0355,0.0354,0.0324,0.0331,0,0,0,0,0,0,0,0,0,0,0.0338,0.0341,0.0354,0.0354,0.0361,0.0355,0.0354,0.0331,0.033,0.0324,0,0.0327,0,0.0334,0.0322,0.0322,0,0,0,0.0347,0.0341,0.0344,0.0354,0.0361,0.0355,0.0353,0.0331,0.033,0.0323,0.0327,0.0326,0.0334,0.0322,0.0322,0.0367,0.0367,0,0,0.0347,0.0347,0.0344,0.0343,0.0364,0.0354,0.0353,0.033,0.0328,0.0327,0.0326,0.0333,0.0322,0.0322,0.0366,0.0367,0,0,0,0.0357,0.0347,0.035,0.0344,0.035,0.0354,0.0353,0.0329,0.0331,0.0325,0.0333,0.0322,0.0322,0.0365,0.0366,0.0465,0,0,0,0.0357,0.0354,0.035,0.0349,0.0351,0.0344,0.0353,0.0332,0.0331,0.0333,0.0322,0.0321,0.0365,0.0366,0.0461,0.0519,0,0,0,0.0353,0.0354,0.0356,0.035,0.0355,0.0344,0.0345,0.0332,0.0336,0.0322,0.0321,0.0364,0.0366,0.0457,0.0512,0.0558,0,0,0,0.0349,0.0379,0.0356,0.0395,0.0355,0.0403,0.0345,0.0369,0.0366,0.0322,0.0365,0.0366,0.0456,0.0507,0.0554,0.0636,0.0663,0,0,0.0392,0.0384,0.0411,0.0391,0.0455,0.0402,0.0466,0.0431,0.0383,0.0366,0.0367,0.0462,0.0511,0.0558,0.0723,0.0747,0,0,0,0.043,0.0451,0.0464,0.0493,0.0508,0.0533,0.05,0.0482,0.0467,0.039,0.0465,0.0493,0.0519,0.056,0.0579,0.0373,0.0373,0.0373,0.0373,0.0482,0.0503,0.0564,0.0593,0.062,0.0628,0.0637,0.0606,0.0545,0.0554,0.0575,0.0683,0.0728,0.0743,0.0568,0.0569,0.0569,0.0569,0.057,0.0572,0.0616,0.0648,0.0714,0.0738,0.0787,0.0779,0.0743,0.074,0.0669,0.0688,0.0665,0.077,0.0577,0.0576,0.0575,0.0574,0.0573,0.0573,0.0614,0.0642,0.0684,0.0788,0.0876,0.09,0.1,0.0942,0.085,0.0869,0.0887,0.0885,0.0743,0.0873,0.0873,0.0874,0.0874,0.0874,0.0875,0.0636,0.0685,0.077,0.0873,0.0959,0.1075,0.1128,0.114,0.1094,0.1016,0.1016,0.0785,0.0775,0.076,0.0882,0.0881,0.088,0.0879,0.0879,0.0691,0.0711,0.0844,0.0936,0.1152,0.1347,0.1373,0.1427,0.1375,0.136,0.1088,0.1081,0.1056,0.104,0.1031,0.1216,0.1216,0.1216,0.1216,0.0718,0.0741,0.0926,0.1097,0.1308,0.1479,0.1709,0.1673,0.1482,0.1321,0.1315,0.1264,0.1249,0.1229,0.1208,0.1199,0.1429,0.1429,0.1429,0.0763,0.0816,0.0955,0.1133,0.139,0.1648,0.1889,0.1845,0.151,0.1432,0.1297,0.1241,0.1148,0.1131,0.108,0.1055,0.1032,0,0]}],[{"header":{"parameterUnit":"m.s-1","parameterCategory":2,"la1":30.2992,"la2":30.254,"lo1":-89.0895,"lo2":-89.0443,"dy":0.0025,"dx":0.0025,"nx":19,"ny":19,"refTime":"2026-05-06T03:00:00:Z","depth":"4","parameterNumber":2,"parameterNumberName":"U-component_of_CURRENTS"},"data":[0,0,0,0.1673,0.1676,0.1845,0.1845,0.1957,0.1957,0,0,0,0,0,0,0,0,0,0,0,0.1617,0.1618,0.1673,0.1677,0.1845,0.1845,0.1956,0.1957,0,0,0,0,0,0,0,0,0,0,0,0.1616,0.1617,0.1619,0.1677,0.1845,0.1846,0.1956,0.1855,0,0,0,0,0,0,0,0,0,0,0.1704,0.1677,0.1617,0.1619,0.1678,0.1844,0.1846,0.1851,0.1861,0.1851,0,0.1889,0,0.1924,0.1963,0.1963,0,0,0,0.1675,0.1669,0.1706,0.1619,0.168,0.1844,0.1768,0.1857,0.1869,0.1864,0.1891,0.1896,0.1926,0.1963,0.1963,0.2072,0.2072,0,0,0.1665,0.1652,0.1698,0.1713,0.1737,0.1763,0.1774,0.1865,0.1885,0.1891,0.1899,0.1928,0.1964,0.1964,0.2071,0.2072,0,0,0,0.164,0.1646,0.1682,0.1708,0.1746,0.1768,0.178,0.1881,0.1892,0.19,0.1929,0.1964,0.1965,0.2071,0.2071,0.2153,0,0,0,0.1634,0.1631,0.1678,0.1673,0.1745,0.1833,0.1794,0.1886,0.1897,0.1929,0.1964,0.1966,0.207,0.2071,0.2149,0.2144,0,0,0,0.1606,0.1628,0.165,0.1672,0.1745,0.1832,0.185,0.1889,0.1914,0.1963,0.1966,0.2069,0.2071,0.2146,0.214,0.2208,0,0,0,0.1582,0.161,0.165,0.1693,0.1743,0.1827,0.185,0.1931,0.1977,0.1964,0.207,0.2071,0.2145,0.2137,0.2205,0.192,0,0,0,0.1591,0.1611,0.1633,0.1672,0.1743,0.1803,0.19,0.1977,0.1992,0.203,0.2034,0.2151,0.214,0.2208,0.2006,0,0,0,0,0.1617,0.1636,0.1663,0.1725,0.1791,0.1883,0.1967,0.2016,0.211,0.2027,0.2157,0.2146,0.2187,0.2012,0.2078,0.2078,0.2078,0.2078,0.2078,0.1603,0.1642,0.1684,0.1751,0.1819,0.1954,0.2034,0.2116,0.2139,0.2204,0.222,0.2328,0.2146,0.2247,0.2247,0.2248,0.2248,0.2248,0.2249,0.1598,0.1609,0.1694,0.1753,0.1861,0.1964,0.2116,0.2186,0.2315,0.2297,0.2336,0.2116,0.2257,0.2255,0.2254,0.2253,0.2252,0.2252,0.2251,0.1559,0.1565,0.163,0.1725,0.1851,0.1994,0.2119,0.2256,0.2359,0.2417,0.2256,0.2379,0.2366,0.247,0.247,0.2471,0.2471,0.2471,0.2471,0.1478,0.1536,0.1582,0.1697,0.177,0.1917,0.2143,0.223,0.2372,0.2288,0.2453,0.2402,0.2395,0.2378,0.2476,0.2475,0.2475,0.2474,0.2474,0.1397,0.1444,0.1489,0.1553,0.1697,0.1775,0.2021,0.2133,0.2215,0.2207,0.2224,0.2235,0.2174,0.2172,0.2145,0.2179,0.2175,0.2172,0,0.1331,0.1359,0.1401,0.145,0.1513,0.1674,0.1725,0.187,0.2,0.1924,0.2215,0.2228,0.2235,0.216,0.2154,0.2118,0,0,0,0.1277,0.1301,0.1294,0.1356,0.1406,0.153,0.1726,0.1718,0.1971,0.1978,0.2089,0.2111,0.2335,0.2491,0.2424,0.2415,0.2385,0,0]},{"header":{"parameterUnit":"m.s-1","parameterCategory":2,"la1":30.2992,"la2":30.254,"lo1":-89.0895,"lo2":-89.0443,"dy":0.0025,"dx":0.0025,"nx":19,"ny":19,"refTime":"2026-05-06T03:00:00:Z","depth":"4","parameterNumber":3,"parameterNumberName":"V-component_of_CURRENTS"},"data":[0,0,0,0.0199,0.02,0.0206,0.0206,0.0174,0.0174,0,0,0,0,0,0,0,0,0,0,0,0.0191,0.0191,0.0199,0.02,0.0206,0.0206,0.0174,0.0174,0,0,0,0,0,0,0,0,0,0,0,0.0191,0.0191,0.0191,0.02,0.0206,0.0206,0.0174,0.0177,0,0,0,0,0,0,0,0,0,0,0.0175,0.0178,0.0191,0.0191,0.02,0.0206,0.0206,0.0177,0.0177,0.0162,0,0.0166,0,0.0175,0.0171,0.0171,0,0,0,0.019,0.0179,0.0181,0.0191,0.02,0.0206,0.0201,0.0177,0.0176,0.0161,0.0166,0.0165,0.0175,0.0171,0.0171,0.0184,0.0185,0,0,0.019,0.0189,0.0182,0.0181,0.0205,0.0201,0.0201,0.0177,0.0176,0.0166,0.0165,0.0174,0.0171,0.0171,0.0184,0.0184,0,0,0,0.0195,0.0189,0.0193,0.0182,0.019,0.0201,0.0201,0.0177,0.0179,0.0165,0.0174,0.0171,0.017,0.0183,0.0184,0.0279,0,0,0,0.0195,0.0193,0.0193,0.0192,0.0191,0.019,0.0202,0.018,0.0178,0.0174,0.0171,0.017,0.0183,0.0184,0.0276,0.0329,0,0,0,0.019,0.0193,0.0195,0.0192,0.02,0.0191,0.0191,0.018,0.0184,0.0171,0.017,0.0183,0.0184,0.0273,0.0323,0.0355,0,0,0,0.0187,0.0209,0.0195,0.0226,0.02,0.0238,0.0191,0.0211,0.0208,0.0171,0.0183,0.0184,0.0272,0.0319,0.0352,0.0359,0,0,0,0.0218,0.0213,0.0234,0.0222,0.0273,0.0236,0.0286,0.0257,0.0213,0.0185,0.0186,0.0277,0.0322,0.0355,0.0414,0,0,0,0,0.0247,0.0264,0.0275,0.03,0.0313,0.0337,0.031,0.0295,0.028,0.0216,0.0269,0.0295,0.0312,0.0305,0.0189,0.0189,0.0188,0.0188,0.0188,0.0285,0.0303,0.0351,0.0375,0.0399,0.0408,0.0418,0.039,0.0338,0.0345,0.0367,0.0451,0.0447,0.0352,0.0353,0.0353,0.0354,0.0354,0.0354,0.035,0.0382,0.0414,0.0469,0.0493,0.0536,0.0529,0.0503,0.0501,0.0444,0.0455,0.04,0.0363,0.0361,0.036,0.0359,0.0358,0.0358,0.0357,0.0376,0.0396,0.0437,0.0523,0.0603,0.0629,0.0706,0.0666,0.0599,0.0617,0.0585,0.0512,0.051,0.0618,0.0619,0.0619,0.0619,0.062,0.062,0.0381,0.0425,0.0496,0.0587,0.0664,0.0761,0.0809,0.0811,0.0746,0.0703,0.0648,0.0539,0.0531,0.0524,0.0626,0.0625,0.0624,0.0624,0.0623,0.0405,0.043,0.0535,0.0616,0.0795,0.0871,0.0923,0.0913,0.0908,0.0857,0.073,0.0723,0.0687,0.0675,0.0671,0.0821,0.0822,0.0822,0,0.0413,0.0434,0.058,0.0718,0.0867,0.0943,0.0997,0.0995,0.0891,0.0872,0.0874,0.0731,0.0725,0.0682,0.0671,0.0668,0,0,0,0.0431,0.0475,0.0579,0.0726,0.0904,0.0973,0.1016,0.0999,0.0908,0.0907,0.0835,0.0832,0.0744,0.0644,0.0571,0.0561,0.0547,0,0]}]]